Location: Unspecified
(32.6095°N, 0.0000°E)
Time: 07:47:10
(UTC+00:00)

OTV 5 (USA 277) - Visible Passes

Search period start: 25 May 2019 00:00
Search period end: 04 June 2019 00:00
Orbit: 310 x 325 km, 54.5° (Epoch: 08 May)

Date Brightness Start Highest point End Pass type
(mag) Time Alt. Az. Time Alt. Az. Time Alt. Az.
01 Jun ? 03:45:30 10° SSE 03:47:14 15° SE 03:48:59 10° E visible
02 Jun ? 03:59:42 15° SSW 04:01:49 56° SE 04:04:32 10° NE visible
03 Jun ? 04:14:08 11° WSW 04:16:33 34° NW 04:19:06 10° NNE visible
